Tracking 25710 objects as of 7-Jul-2022
HD Live streaming from Space Station
objects crossing your sky now

FENGYUN 1C DEB

Track FENGYUN 1C DEB now!
10-day predictions


NORAD ID: 30331
Int'l Code: 1999-025AAS
Perigee: 844.2 km
Apogee: 988.0 km
Inclination: 99.1 °
Period: 103.2 minutes
Semi major axis: 7287 km
RCS: 0.0259 m2 (small)
Launch date: May 10, 1999
Source: People's Republic of China (PRC)
Launch site: Taiyaun Space Center, China (TSC)

Note: This is SATELLITE DEBRIS
aabbcc
Your satellite tracking list
Your tracking list is empty




NASA's NSSDC Master Catalog

Two Line Element Set (TLE):
1 30331U 99025AAS 22187.37074617 -.00000123  00000-0 -55376-4 0  9998
2 30331  99.1069 228.7254 0098677 212.8192 159.8542 13.95642998785963
Source of the keplerian elements: AFSPC